Change the Weather History Date:

Thursday, February 14, 2013

  Actual Average Record
Temperature  
Mean Temperature 35 °F -  
Max Temperature 42 °F 38 °F 55 °F (1990)
Min Temperature 28 °F 16 °F -11 °F (2003)
Degree Days  
Heating Degree Days 30    
Moisture  
Dew Point 21 °F    
Average Humidity 59    
Maximum Humidity 79    
Minimum Humidity 40    
Precipitation  
Precipitation 0.00 in - - ()
Sea Level Pressure  
Sea Level Pressure 29.91 in    
Wind  
Wind Speed 4 mph (WNW)    
Max Wind Speed 8 mph    
Max Gust Speed -    
Visibility 10 miles    
Events      
Averages and records for this station are not official NWS values.
T = Trace of Precipitation, MM = Missing Value Source: NWS Daily Summary

Daily Weather History Graph

Daily Weather History Graph

Search for Another Location

Airport or City:

Trip Planner

Search our weather history database for the weather conditions in past years. The results will help you decide how hot, cold, wet, or windy it might be!

Date:

Astronomy

Feb. 14, 2013 Rise Set
Actual Time 6:42 AM EST 5:16 PM EST
Civil Twilight 6:13 AM EST 5:45 PM EST
Nautical Twilight 5:41 AM EST 6:18 PM EST
Astronomical Twilight 5:08 AM EST 6:50 PM EST
Moon 8:36 AM EST (2/14) 10:23 PM EST (2/14)
Length of Visible Light 11h 31m
Length of Day
10h 33m
Waxing Crescent, 21% of the Moon is Illuminated
Feb 14
Waxing Crescent
Feb 17
First Quarter
Feb 25
Full
Mar 4
Last Quarter
Mar 11
New

Hourly Weather History & Observations

Time (EST) Temp. Windchill Dew Point Humidity Pressure Visibility Wind Dir Wind Speed Gust Speed Precip Events Conditions
12:56 AM 30.9 °F - 25.0 °F 79% 29.78 in 10.0 mi Calm Calm - N/A   Overcast
1:56 AM 30.9 °F 27.5 °F 24.1 °F 76% 29.75 in 10.0 mi NNW 3.5 mph - N/A   Overcast
2:56 AM 30.9 °F 27.5 °F 23.0 °F 72% 29.77 in 10.0 mi NW 3.5 mph - N/A   Overcast
3:56 AM 30.9 °F 25.2 °F 21.9 °F 69% 29.78 in 10.0 mi NW 5.8 mph - N/A   Overcast
4:56 AM 30.9 °F 23.5 °F 21.0 °F 67% 29.81 in 10.0 mi NNW 8.1 mph - N/A   Overcast
5:56 AM 28.0 °F 22.8 °F 19.9 °F 72% 29.82 in 10.0 mi NW 4.6 mph - N/A   Clear
6:56 AM 28.0 °F 22.8 °F 19.9 °F 72% 29.84 in 10.0 mi NNW 4.6 mph - N/A   Scattered Clouds
7:56 AM 30.0 °F 25.2 °F 19.0 °F 64% 29.88 in 10.0 mi NNW 4.6 mph - N/A   Clear
8:56 AM 34.0 °F 28.0 °F 19.9 °F 56% 29.91 in 10.0 mi NNW 6.9 mph - N/A   Clear
9:56 AM 37.4 °F 31.4 °F 19.4 °F 48% 29.87 in 10.0 mi NNW 8.1 mph - N/A   Clear
10:56 AM 37.9 °F 32.7 °F 19.9 °F 48% 29.93 in 10.0 mi NW 6.9 mph - N/A   Partly Cloudy
11:56 AM 39.0 °F 34.8 °F 19.9 °F 46% 29.93 in 10.0 mi NNE 5.8 mph - N/A   Clear
12:56 PM 39.9 °F - 19.0 °F 43% 29.92 in 10.0 mi Calm Calm - N/A   Clear
1:56 PM 42.1 °F 38.4 °F 19.0 °F 40% 29.92 in 10.0 mi NW 5.8 mph - N/A   Clear
2:56 PM 42.1 °F - 19.0 °F 40% 29.92 in 10.0 mi Calm Calm - N/A   Clear
3:56 PM 42.1 °F 37.7 °F 19.9 °F 41% 29.94 in 10.0 mi SW 6.9 mph - N/A   Clear
4:56 PM 39.9 °F 35.8 °F 19.9 °F 45% 29.96 in 10.0 mi South 5.8 mph - N/A   Clear
5:56 PM 37.0 °F 33.3 °F 21.0 °F 52% 29.98 in 10.0 mi South 4.6 mph - N/A   Clear
6:56 PM 35.1 °F 30.1 °F 23.0 °F 61% 30.00 in 10.0 mi SSE 5.8 mph - N/A   Partly Cloudy
7:56 PM 32.0 °F - 21.9 °F 66% 30.01 in 10.0 mi Calm Calm - N/A   Clear
8:56 PM 34.0 °F 31.0 °F 24.1 °F 67% 30.01 in 10.0 mi SW 3.5 mph - N/A   Scattered Clouds
9:56 PM 33.1 °F 26.9 °F 23.0 °F 66% 30.01 in 10.0 mi SSW 6.9 mph - N/A   Clear
10:56 PM 32.0 °F 27.5 °F 23.0 °F 69% 30.02 in 10.0 mi WSW 4.6 mph - N/A   Partly Cloudy
11:56 PM 32.0 °F 26.4 °F 23.0 °F 69% 30.02 in 10.0 mi SSW 5.8 mph - N/A   Mostly Cloudy